Regional Weather Roundup
Issued by NWS

Home | Current Version | Previous Version | Graphics & Text | Print | Product List | Glossary Off
Versions: 1 2 3 4 5 6 7 8 9 10 11 12 13 14 15 16 17 18 19 20 21 22 23 24 25 26 27 28 29 30 31 32 33 34 35 36 37 38 39 40 41 42 43 44 45 46 47 48 49 50

000
ASUS43 KDTX 271610
RWRMI
MICHIGAN HOURLY REGIONAL WEATHER ROUNDUP
NATIONAL WEATHER SERVICE DETROIT/PONTIAC MI
1100 AM EST THU NOV 27 2014

NOTE: "FAIR" INDICATES FEW OR NO CLOUDS BELOW 12,000 FEET WITH NO
SIGNIFICANT WEATHER AND/OR OBSTRUCTION TO VISIBILITY.

MIZ047>049-052>055-059>063-066>070-074>076-081>083-271700-
SOUTHEAST LOWER MICHIGAN

CITY           SKY/WX    TMP DP  RH WIND       PRES   REMARKS
ADRIAN         CLOUDY    31  22  69 NW8       30.20R WCI  23
ALMA           CLOUDY    29  24  81 NW7       30.19R WCI  22
ANN ARBOR      CLOUDY    32  23  69 W10       30.17R WCI  24
BAD AXE        LGT SNOW  29  28  94 NW13      30.12R WCI  19
CARO           CLOUDY    30  25  80 W9        30.14R WCI  22
DETROIT CITY   CLOUDY    33  21  61 W7        30.16S WCI  27
DETROIT        PTSUNNY   34  22  61 W8        30.18R WCI  27
FLINT          CLOUDY    31  24  75 NW13      30.17R WCI  21
GROSSE ILE     CLOUDY    32  23  69 W8        30.16S WCI  25
HILLSDALE      CLOUDY    30  23  76 W9        30.18R WCI  21
HOWELL         PTSUNNY   30  24  78 NW7       30.16R WCI  23

CITY           SKY/WX    TMP DP  RH WIND       PRES   REMARKS
JACKSON        PTSUNNY   30  23  75 W6        30.18R WCI  24
LAMBERTVILLE   CLOUDY    32  23  69 W9        30.20R WCI  24
LANSING        CLOUDY    30  23  75 W8        30.18R WCI  22
LAPEER         CLOUDY    30  24  76 NW9       30.14R WCI  22
MASON          CLOUDY    30  25  80 W9        30.18R WCI  22
MONROE         PTSUNNY   32  25  74 W6        30.17R WCI  26
MT. CLEMENS    CLOUDY    32  25  74 W15       30.12S WCI  22
PONTIAC        PTSUNNY   30  21  69 NW12      30.13S WCI  20
PORT HOPE        N/A     31  28  89 NW15G24   30.08R WCI  20
PORT HURON     CLOUDY    32  25  74 W12       30.13S WCI  23
TRI CITIES     CLOUDY    31  23  72 NW10      30.18R WCI  22
TROY           CLOUDY    33  24  68 W10       30.16S WCI  25
SAGINAW HB     CLOUDY    32  27  80 NW8       30.16R WCI  25
$$
MIZ043>046-050>051-056>058-064>065-071>073-077>080-271700-
SOUTHWEST LOWER MICHIGAN

CITY           SKY/WX    TMP DP  RH WIND       PRES   REMARKS
BATTLE CREEK   LGT SNOW  31  25  78 W9        30.20R WCI  23
BENTON HARBOR  LGT SNOW  31  26  82 NW13G22   30.25R WCI  21
BIG RAPIDS     CLOUDY    28  23  84 N10       30.19R WCI  18
COLDWATER      LGT SNOW  31  27  85 W10       30.20S WCI  22
FREMONT        FLURRIES  28  24  84 N7        30.21R WCI  21
HOLLAND        LGT SNOW  31  26  82 N6        30.22R WCI  25
GRAND RAPIDS   SNOW      29  26  89 W5        30.20R VSB 1/2 WCI  24
IONIA            N/A     31  26  81 NW7       30.18R WCI  24
KALAMAZOO      LGT SNOW  30  27  88 SW5       30.21R VSB 1   WCI  25
LUDINGTON      LGT SNOW  24  21  87 N14G28    30.26R VSB 1   WCI  12
MARSHALL       LGT SNOW  29  25  84 W8        30.19R WCI  21
MOUNT PLEASANT CLOUDY    29  23  76 NW6       30.18R WCI  23
MUSKEGON       SNOW      30  24  78 N9        30.24R VSB 1/2 WCI  22
SOUTH HAVEN    CLOUDY    33  29  84 NW14G23   30.22S WCI  24
$$
MIZ016>042-271700-
NORTHERN LOWER MICHIGAN

CITY           SKY/WX    TMP DP  RH WIND       PRES   REMARKS
ALPENA         LGT SNOW  23  19  85 NW14G21   30.16R FOG     WCI  11
BEAVER ISLAND  PTSUNNY   22  12  65 NW14G21   30.24R WCI   9
BELLAIRE       FLURRIES  24  18  76 N7        30.24R WCI  16
CADILLAC       PTSUNNY   22  17  82 NW10G20   30.17R WCI  11
CHARLEVOIX     CLOUDY    22  14  71 N15G22    30.27R WCI   9
FRANKFORT      CLOUDY    22  17  78 NW14      30.27R WCI  10
GAYLORD        LGT SNOW  20  14  77 VRB7      30.16R WCI  11
GRAYLING       FLURRIES  21  17  84 NW10      30.18R WCI  10
HARBOR SPRINGS FLURRIES  22  13  68 NW9       30.22R WCI  12
HOUGHTON LAKE  CLOUDY    24  16  71 N10       30.17R WCI  14
MANISTEE       CLOUDY    25  18  74 N14G24    30.26R WCI  13
OSCODA         LGT SNOW  28  24  86 NW18      30.13R WCI  15
PELLSTON       CLOUDY    21  12  68 NW20G29   30.23R WCI   6
ROGERS CITY    LGT SNOW  24  20  87 W12G21    30.18S WCI  12
TRAVERSE CITY  LGT SNOW  25  18  74 NW13      30.24R WCI  14
$$
MIZ007>008-015-271700-
EASTERN UPPER MICHIGAN

CITY           SKY/WX    TMP DP  RH WIND       PRES   REMARKS
KINROSS        CLOUDY    19  14  79 W18       30.17R WCI   4
MACKINAC ISLAN CLOUDY    21  13  71 NW10G20   30.20S WCI   9
NEWBERRY       LGT SNOW  17   8  67 NW12G20   30.21R WCI   5
S. S. MARIE    FLURRIES  20  12  71 NW13      30.18S WCI   7
MUNISING         N/A     21   8  57 NW18G30   30.27S WCI   6
$$
MIZ004>006-011>014-085-271700-
CENTRAL UPPER MICHIGAN

CITY           SKY/WX    TMP DP  RH WIND       PRES   REMARKS
MANISTIQUE     FLURRIES  18  12  77 NW14G21   30.26R WCI   4
ESCANABA       SUNNY     14   0  52 NW14G23   30.31R WCI  -1
MENOMINEE      SUNNY     14   3  62 N16       30.33R WCI  -2
SAWYER-GWINN   SUNNY     10   3  72 NW15G21   30.26S WCI  -6
$$
MIZ001>003-009>011-084-271700-
WESTERN UPPER MICHIGAN

CITY           SKY/WX    TMP DP  RH WIND       PRES   REMARKS
IRON MOUNTAIN  MOSUNNY   10   1  67 NW9       30.31R WCI  -3
HOUGHTON       LGT SNOW   9   1  70 N14       30.32S WCI  -7
COPPER HARBOR    N/A     14   7  73 N20G28    30.34R WCI  -3
IRONWOOD       CLOUDY     9   3  78 NW13      30.34R VSB 1   WCI  -7
$$

ABBREVIATIONS USED IN REMARKS
   TC - TEMPERATURE IN CELSIUS
  WCI - WIND CHILL INDEX
   HX - HEAT INDEX
  VSB - VISIBILITY



USA.gov is the U.S. government's official web portal to all federal, state and local government web resources and services.